Home   Weather   La-Chaux-de-Fonds   Past weeks

Flag for Switzerland Past Weather in La-Chaux-de-Fonds, Neuchâtel, Switzerland — Yesterday and Last 2 Weeks

Now
63 °F

Passing clouds.


Feels Like: 63 °F
Forecast: 46 / 64 °F
Wind: 3 mph from Northwest

Location: Les Eplatures

Current Time: Sep 28, 2016 at 7:07:40 PM

Latest Report: Sep 28, 2016 at 6:20 PM


Visibility: N/A

Pressure: 30.45 "Hg (27.07 "Hg at 1000m altitude)

Humidity: 68%

Dew Point: 52 °F

Location of La-Chaux-de-FondsLocation

Past Weather in La-Chaux-de-Fonds — Graph

°F

La-Chaux-de-Fonds Temperature Yesterday

Maximum temperature yesterday: 63 °F (at 3:20 PM)
Minimum temperature yesterday: 46 °F (at 10:20 PM)
Average temperature yesterday: 54 °F

High & Low Weather Summary for the Past Weeks

 TemperatureHumidityPressure
High77 °F (Sep 13, 5:20 PM)100% (Sep 15, 11:20 AM)30.51 "Hg (Sep 15, 11:20 AM)
Low37 °F (Sep 22, 6:20 AM)36% (Sep 13, 5:20 PM)29.89 "Hg (Sep 15, 1:50 AM)
Average53 °F86%30.15 "Hg
* Reported Sep 13 5:20 PM — Sep 28 5:50 PM, La-Chaux-de-Fonds, Weather by CustomWeather, © 2016

Note: Actual official high and low records may vary slightly from our data, if they occured in-between our weather recording intervals... More about our weather records

Advertising

La-Chaux-de-Fonds Weather History for the Previous 24 Hours

Scroll right to see more
 ConditionsComfort  
Time TempWeatherWind HumidityBarometerVisibility
5:50 PM
Wed, Sep 28
64 °FPassing clouds.3 mph64%30.45 "HgN/A
5:20 PM64 °FPassing clouds.3 mph64%30.45 "HgN/A
4:50 PM64 °FPassing clouds.5 mph60%30.45 "HgN/A
4:20 PM66 °FPassing clouds.7 mph37%30.45 "HgN/A
3:50 PM66 °FPassing clouds.7 mph46%30.45 "HgN/A
3:20 PM66 °FPassing clouds.7 mph49%30.45 "HgN/A
2:50 PM66 °FPassing clouds.5 mph52%30.45 "HgN/A
2:20 PM64 °FPassing clouds.5 mph56%30.48 "HgN/A
1:50 PM64 °FPassing clouds.6 mph60%30.48 "HgN/A
1:20 PM64 °FSunny.5 mph60%30.48 "Hg10 mi
12:50 PM63 °FPassing clouds.8 mph59%30.48 "HgN/A
12:20 PM63 °FPassing clouds.7 mph59%30.48 "HgN/A
11:50 AM61 °FSunny.7 mph63%30.51 "Hg10 mi
11:20 AM61 °FPassing clouds.8 mph68%30.51 "HgN/A
10:50 AM57 °FPassing clouds.5 mph82%30.51 "HgN/A
10:20 AM54 °FSunny.2 mph88%30.48 "Hg10 mi
9:50 AM50 °FSunny.3 mph100%30.48 "Hg10 mi
9:20 AM46 °FSunny.2 mph100%30.48 "Hg10 mi
8:50 AM45 °FQuite cool.2 mph100%30.48 "Hg4 mi
8:20 AM41 °FClear.No wind100%30.48 "Hg10 mi
7:50 AM39 °FFog.2 mph100%30.45 "Hg3 mi
7:20 AM39 °FClear.2 mph100%30.45 "Hg10 mi
6:50 AM41 °FFog.1 mph100%30.45 "Hg2 mi
6:20 AM41 °FQuite cool.3 mph100%30.45 "Hg3 mi
5:50 AM39 °FChilly.2 mph100%30.45 "Hg3 mi
5:20 AM39 °FChilly.1 mph100%30.45 "Hg4 mi
4:50 AM39 °FChilly.2 mph100%30.45 "Hg5 mi
4:20 AM41 °FFog.2 mph100%30.45 "Hg1 mi
3:50 AM41 °FFog.1 mph100%30.45 "Hg1 mi
3:20 AM39 °FFog.1 mph100%30.45 "Hg0 mi
2:50 AM43 °FFog.No wind93%30.45 "Hg1 mi
2:20 AM43 °FClear.1 mph93%30.45 "Hg10 mi
1:50 AM43 °FQuite cool.1 mph100%30.42 "Hg4 mi
1:20 AM45 °FFog.1 mph100%30.42 "Hg2 mi
12:50 AM45 °FQuite cool.1 mph93%30.42 "Hg3 mi
12:20 AM45 °FQuite cool.No wind93%30.42 "Hg5 mi
11:50 PM
Tue, Sep 27
46 °FCool.1 mph93%30.42 "Hg5 mi
11:20 PM46 °FClear.No wind93%30.42 "Hg10 mi
10:50 PM48 °FClear.No wind94%30.42 "Hg10 mi
10:20 PM46 °FClear.No wind100%30.42 "Hg10 mi
9:50 PM48 °FClear.No wind94%30.42 "Hg10 mi
9:20 PM48 °FClear.1 mph100%30.42 "Hg10 mi
8:50 PM50 °FClear.No wind94%30.42 "Hg10 mi
8:20 PM54 °FClear.1 mph88%30.39 "Hg10 mi
7:50 PM55 °FSunny.2 mph82%30.39 "Hg10 mi
7:20 PM57 °FPassing clouds.3 mph82%30.39 "HgN/A
Weather by CustomWeather, © 2016

See weather overviewHow to use our weather pages